Location: Recife
(8.0585°S, 34.8848°W)
Time: 10:01:39
(UTC-03:00)

Courier 1B Rocket - Pass Details

Date: 21 April 2026
Orbit: 920 x 1201 km, 28.2° (Epoch: 13 May)

Event Time Altitude Azimuth Distance (km) Brightness Sun altitude
Rises 06:13:54 0° 237° (WSW) 3,605 7.4 11.8°
Reaches altitude 10° 06:18:20 10° 209° (SSW) 2,709 7.0 12.8°
Maximum altitude 06:21:03 13° 184° (S) 2,552 7.1 13.5°
Drops below altitude 10° 06:23:50 10° 159° (SSE) 2,786 7.5 14.1°
Sets 06:28:33 0° 132° (SE) 3,811 8.6 15.3°
